[TLELIST] Archives

 

[list_settings.list_name] Current TLEs

July 21st 2010 PST

HST 1 20580U 90037B 10200.56205169 .00000395 00000-0 17404-4 0 6052 2 20580 028.4706 028.5027 0003601 185.5876 174.4774 15.00999814909624 ISS (ZARYA) 1 25544U 98067A 10201.69224130 .00008172 00000-0 67752-4 0 5514 2 25544 051.6461 059.0911 0008449 128.5315 301.8888 15.71233245668740 CXO 1 25867U 99040B 10200.79166667 -.00000730 00000-0 10000-3 0 4902 2 25867 067.2995 051.8521 8217412 275.3081 358.4574 00.37806756 6511 ____________________________________________________________________ These 2-Line ...Continue Reading

[list_settings.list_name] Current TLEs

July 20th 2010 PST

HST 1 20580U 90037B 10200.56205169 .00000395 00000-0 17404-4 0 6052 2 20580 028.4706 028.5027 0003601 185.5876 174.4774 15.00999814909624 ISS (ZARYA) 1 25544U 98067A 10201.43617628 .00008275 00000-0 68553-4 0 5495 2 25544 051.6466 060.4003 0008475 127.8385 293.1958 15.71229309668704 CXO 1 25867U 99040B 10200.79166667 -.00000730 00000-0 10000-3 0 4902 2 25867 067.2995 051.8521 8217412 275.3081 358.4574 00.37806756 6511 ____________________________________________________________________ These 2-Line ...Continue Reading

[list_settings.list_name] Current TLEs

July 19th 2010 PST

HST 1 20580U 90037B 10197.03800626 .00000364 00000-0 15054-4 0 6042 2 20580 028.4700 051.5109 0003573 148.6995 211.3827 15.00998052909099 ISS (ZARYA) 1 25544U 98067A 10200.40572917 .00008456 00000-0 69999-4 0 5432 2 25544 051.6469 065.6690 0008487 124.0397 224.4634 15.71211556668535 CXO 1 25867U 99040B 10200.79166667 -.00000730 00000-0 10000-3 0 4902 2 25867 067.2995 051.8521 8217412 275.3081 358.4574 00.37806756 6511 ____________________________________________________________________ These 2-Line ...Continue Reading

[list_settings.list_name] Current TLEs

July 18th 2010 PST

HST 1 20580U 90037B 10197.03800626 .00000364 00000-0 15054-4 0 6042 2 20580 028.4700 051.5109 0003573 148.6995 211.3827 15.00998052909099 ISS (ZARYA) 1 25544U 98067A 10199.46436938 .00007864 00000-0 65485-4 0 5367 2 25544 051.6462 070.4844 0008668 121.6157 298.6632 15.71193085668392 CXO 1 25867U 99040B 10198.12500000 -.00000499 00000-0 10000-3 0 4898 2 25867 067.2850 051.9509 8209977 275.3200 355.4433 00.37803968 6500 ____________________________________________________________________ These 2-Line ...Continue Reading

[list_settings.list_name] Current TLEs

July 17th 2010 PST

HST 1 20580U 90037B 10197.03800626 .00000364 00000-0 15054-4 0 6042 2 20580 028.4700 051.5109 0003573 148.6995 211.3827 15.00998052909099 ISS (ZARYA) 1 25544U 98067A 10198.36914352 .00033047 00000-0 25913-3 0 5303 2 25544 051.6454 076.0839 0008194 114.6325 226.6151 15.71202030668211 CXO 1 25867U 99040B 10198.12500000 -.00000499 00000-0 10000-3 0 4898 2 25867 067.2850 051.9509 8209977 275.3200 355.4433 00.37803968 6500 ____________________________________________________________________ These 2-Line ...Continue Reading

[list_settings.list_name] Current TLEs

July 16th 2010 PST

HST 1 20580U 90037B 10197.03800626 .00000364 00000-0 15054-4 0 6042 2 20580 028.4700 051.5109 0003573 148.6995 211.3827 15.00998052909099 ISS (ZARYA) 1 25544U 98067A 10197.25306030 .00011568 00000-0 89212-4 0 5226 2 25544 051.6477 081.7900 0010467 083.9651 059.8884 15.72443206668047 CXO 1 25867U 99040B 10198.12500000 -.00000499 00000-0 10000-3 0 4898 2 25867 067.2850 051.9509 8209977 275.3200 355.4433 00.37803968 6500 ____________________________________________________________________ These 2-Line ...Continue Reading

[list_settings.list_name] Current TLEs

July 15th 2010 PST

HST 1 20580U 90037B 10196.04063386 .00000342 00000-0 13348-4 0 6035 2 20580 028.4692 058.0248 0003494 140.7115 219.3727 15.00997412908943 ISS (ZARYA) 1 25544U 98067A 10196.29210846 .00010679 00000-0 82817-4 0 5167 2 25544 051.6477 086.7120 0010387 080.8365 019.6377 15.72416478667899 CXO 1 25867U 99040B 10195.45833333 -.00000362 00000-0 10000-3 0 4887 2 25867 067.2645 052.0700 8206412 275.3357 352.3404 00.37805863 6499 ____________________________________________________________________ These 2-Line ...Continue Reading

[list_settings.list_name] Current TLEs

July 14th 2010 PST

HST 1 20580U 90037B 10195.04326226 .00000342 00000-0 13348-4 0 6028 2 20580 028.4692 064.5341 0003494 130.1088 229.9871 15.00997063908793 ISS (ZARYA) 1 25544U 98067A 10195.33975817 .00009911 00000-0 77280-4 0 5094 2 25544 051.6473 091.5901 0010316 077.0435 028.8638 15.72392074667745 CXO 1 25867U 99040B 10195.45833333 -.00000362 00000-0 10000-3 0 4887 2 25867 067.2645 052.0700 8206412 275.3357 352.3404 00.37805863 6499 ____________________________________________________________________ These 2-Line ...Continue Reading

[list_settings.list_name] Current TLEs

July 13th 2010 PST

HST 1 20580U 90037B 10193.11500669 .00000321 00000-0 11727-4 0 6014 2 20580 028.4687 077.1215 0003533 107.5293 252.5680 15.00996241908503 ISS (ZARYA) 1 25544U 98067A 10194.32189975 .00009770 00000-0 76312-4 0 5036 2 25544 051.6474 096.8029 0010390 073.1566 027.2101 15.72370163667584 CXO 1 25867U 99040B 10192.83333333 -.00000392 00000-0 10000-3 0 4873 2 25867 067.2519 052.2974 8201733 275.3005 354.9433 00.37804110 6488 ____________________________________________________________________ These 2-Line ...Continue Reading

[list_settings.list_name] Current TLEs

July 12th 2010 PST

HST 1 20580U 90037B 10193.11500669 .00000321 00000-0 11727-4 0 6014 2 20580 028.4687 077.1215 0003533 107.5293 252.5680 15.00996241908503 ISS (ZARYA) 1 25544U 98067A 10193.30407566 .00008966 00000-0 70494-4 0 4975 2 25544 051.6467 102.0155 0010303 069.5068 025.5907 15.72346201667420 CXO 1 25867U 99040B 10192.83333333 -.00000392 00000-0 10000-3 0 4873 2 25867 067.2519 052.2974 8201733 275.3005 354.9433 00.37804110 6488 ____________________________________________________________________ These 2-Line ...Continue Reading
  • This mailing list is a public mailing list - anyone may join or leave, at any time.
  • This mailing list is announce-only.

International Space Station (ISS) / Hubble Space Telescope (HST) / Chandra X-Ray Observatory Orbital Data via EMAIL

Privacy Policy:

Private list